Back to catalog

FREGAT DEB

LostUNKNOWN
NORAD 46249·DEBRIS·🇷🇺 Russia

Launched Jul 18, 2011 from Baikonur Cosmodrome

Loading…

Next Passes (next 24 hours)

TLE

StaleSource: Space-Track

Epoch: Aug 2, 2021, 21:46 UTC

1 46249U 11037KK  21214.90743225  .00000023  00000-0  34475-2 0  9999
2 46249  50.5496  43.9536 1327011 202.4263 151.2805  9.62197414 33775

Track FREGAT DEB in real time with AllMySat

Download on the App Store